Location: Newark
(44.4156°N, 12.1972°E)
Time: 04:20:17
(UTC+00:00)

STARLINK-1095 - Pass Details

Date: 28 January 2020
Orbit: 349 x 351 km, 53.0° (Epoch: 21 February)

Event Time Altitude Azimuth Distance (km) Brightness Sun altitude
Rises 17:05:50 0° 306° (NW) 2,182 7.3 -9.5°
Reaches altitude 10° 17:08:11 10° 323° (NW) 1,336 5.9 -9.9°
Maximum altitude 17:10:31 20° 15° (NNE) 889 4.4 -10.3°
Enters shadow 17:11:55 15° 52° (NE) 1,069 4.5 -10.5°
